Tracking 19832 objects as of 25-Aug-2019
HD Live streaming from Space Station
objects crossing your sky now

FENGYUN 1C DEB

Track FENGYUN 1C DEB now!
10-day predictions


NORAD ID: 30331
Int'l Code: 1999-025AAS
Perigee: 844.8 km
Apogee: 989.8 km
Inclination: 99.2 °
Period: 103.2 minutes
Semi major axis: 7288 km
RCS: 0.0259 m2 (small)
Launch date: May 10, 1999
Source: People's Republic of China (PRC)
Launch site: Taiyaun Space Center, China (TSC)

Note: This is SATELLITE DEBRIS
aabbcc
Your satellite tracking list
Your tracking list is empty




NASA's NSSDC Master Catalog

Two Line Element Set (TLE):
1 30331U 99025AAS 19236.82587213  .00000141  00000-0  13209-3 0  9996
2 30331  99.2329 267.5782 0099440 187.8405 225.0823 13.95290934640111
Source of the keplerian elements: AFSPC